Change the Weather History Date:

Saturday, October 13, 2012

  Actual Average Record
Temperature  
Mean Temperature 62 °F -  
Max Temperature 77 °F 82 °F 97 °F (1998)
Min Temperature 48 °F 47 °F 33 °F (2008)
Degree Days  
Heating Degree Days 2    
Growing Degree Days 12 (Base 50)    
Moisture  
Dew Point 32 °F    
Average Humidity 36    
Maximum Humidity 59    
Minimum Humidity 17    
Precipitation  
Precipitation 0.00 in - - ()
Sea Level Pressure  
Sea Level Pressure 30.01 in    
Wind  
Wind Speed 9 mph (WNW)    
Max Wind Speed 17 mph    
Max Gust Speed 25 mph    
Visibility 10 miles    
Events      
Averages and records for this station are not official NWS values.
T = Trace of Precipitation, MM = Missing Value Source: NWS Daily Summary

Daily Weather History Graph

Daily Weather History Graph

Search for Another Location

Airport or City:

Trip Planner

Search our weather history database for the weather conditions in past years. The results will help you decide how hot, cold, wet, or windy it might be!

Date:

Astronomy

Oct. 13, 2012 Rise Set
Actual Time 6:21 AM MST 5:47 PM MST
Civil Twilight 5:56 AM MST 6:11 PM MST
Nautical Twilight 5:28 AM MST 6:40 PM MST
Astronomical Twilight 4:59 AM MST 7:09 PM MST
Moon 4:19 AM MST (10/13) 4:29 PM MST (10/13)
Length of Visible Light 12h 15m
Length of Day
11h 25m
Waning Crescent, 4% of the Moon is Illuminated
Oct 13
Waning Crescent
Oct 15
New
Oct 21
First Quarter
Oct 29
Full
Nov 6
Last Quarter

Hourly Weather History & Observations

Time (MST) Temp. Dew Point Humidity Pressure Visibility Wind Dir Wind Speed Gust Speed Precip Events Conditions
12:51 AM 55.9 °F 35.1 °F 45% 29.99 in 10.0 mi NW 10.4 mph - N/A   Clear
1:51 AM 55.0 °F 36.0 °F 49% 30.00 in 10.0 mi NW 10.4 mph - N/A   Clear
2:51 AM 55.0 °F 35.1 °F 47% 30.01 in 10.0 mi NW 12.7 mph - N/A   Clear
3:51 AM 54.0 °F 35.1 °F 49% 30.01 in 10.0 mi NW 10.4 mph - N/A   Clear
4:51 AM 53.1 °F 35.1 °F 50% 30.03 in 10.0 mi NW 8.1 mph - N/A   Clear
5:51 AM 48.9 °F 35.1 °F 59% 30.06 in 10.0 mi South 4.6 mph - N/A   Clear
6:51 AM 48.0 °F 34.0 °F 58% 30.09 in 10.0 mi Calm Calm - N/A   Clear
7:51 AM 53.1 °F 35.1 °F 50% 30.10 in 10.0 mi Calm Calm - N/A   Clear
8:51 AM 59.0 °F 35.1 °F 41% 30.10 in 10.0 mi West 3.5 mph - N/A   Clear
9:51 AM 64.0 °F 35.1 °F 34% 30.09 in 10.0 mi WNW 10.4 mph - N/A   Clear
10:51 AM 69.1 °F 30.9 °F 24% 30.06 in 10.0 mi WNW 10.4 mph 19.6 mph N/A   Clear
11:51 AM 71.1 °F 30.9 °F 23% 30.03 in 10.0 mi NW 10.4 mph - N/A   Clear
12:51 PM 73.0 °F 28.9 °F 20% 29.99 in 10.0 mi West 17.3 mph 20.7 mph N/A   Clear
2:51 PM 77.0 °F 28.0 °F 17% 29.95 in 10.0 mi WNW 17.3 mph 25.3 mph N/A   Clear
3:51 PM 77.0 °F 30.0 °F 18% 29.94 in 10.0 mi West 15.0 mph 24.2 mph N/A   Clear
4:51 PM 75.9 °F 30.9 °F 19% 29.93 in 10.0 mi West 12.7 mph - N/A   Clear
5:51 PM 72.0 °F 30.9 °F 22% 29.95 in 10.0 mi WNW 10.4 mph - N/A   Clear
6:51 PM 70.0 °F 30.9 °F 24% 29.97 in 10.0 mi NNW 11.5 mph - N/A   Clear
7:51 PM 64.9 °F 30.9 °F 28% 29.99 in 10.0 mi WNW 8.1 mph - N/A   Clear
8:51 PM 62.1 °F 30.0 °F 30% 29.99 in 10.0 mi WNW 5.8 mph - N/A   Clear
10:51 PM 55.0 °F 28.9 °F 37% 30.02 in 10.0 mi East 4.6 mph - N/A   Clear
11:51 PM 55.0 °F 30.0 °F 38% 30.02 in 10.0 mi SE 3.5 mph - N/A   Clear